period_start,C,m1,H,J0,J1,J2,J3,J4,J5,JA,JB,JC,JD,JJ,JK,JN,#
2018-06-19 00:01:31,0.01,2.58,0.00,24.43,28.22,31.14,13.82,49.02,1012.22,2023.00,2422.94,2360.06,2739.98,599.86,590.47,49.89,0000 0000 0000 0000 000000
2018-06-19 00:06:33,0.03,2.58,0.00,24.46,28.25,31.20,13.83,49.21,1012.22,2023.00,2422.43,2360.00,2739.64,599.74,590.29,49.94,0000 0000 0000 0000 000000
2018-06-19 00:11:34,0.01,2.58,0.00,24.48,28.26,31.21,13.86,48.98,1012.18,2022.97,2421.88,2359.80,2738.88,600.24,590.73,49.99,0000 0000 0000 0000 000000
2018-06-19 00:16:35,0.16,2.59,0.00,24.52,28.28,31.23,13.93,49.13,1012.20,2022.95,2420.28,2358.11,2737.11,600.12,590.51,50.04,0000 0000 0000 0000 000000
2018-06-19 00:21:37,-0.01,2.59,0.00,24.58,28.30,31.22,13.83,49.27,1012.22,2022.76,2420.00,2357.98,2736.89,599.63,590.05,50.09,0000 0000 0000 0000 000000
2018-06-19 00:26:38,0.12,2.59,0.00,24.63,28.32,31.11,13.84,49.09,1012.21,2022.52,2419.28,2357.02,2735.47,600.40,590.64,50.14,0000 0000 0000 0000 000000
2018-06-19 00:31:40,0.08,2.60,0.00,24.70,28.35,31.06,13.80,49.03,1012.18,2022.09,2417.17,2355.02,2733.06,599.90,590.02,50.19,0000 0000 0000 0000 000000
2018-06-19 00:36:41,-0.00,2.60,0.00,24.73,28.37,31.05,13.75,49.00,1012.19,2022.04,2417.01,2354.92,2732.98,600.07,590.06,50.24,0000 0000 0000 0000 000000
2018-06-19 00:41:42,0.03,2.60,0.00,24.78,28.39,31.07,13.76,49.10,1012.17,2022.01,2417.00,2354.39,2732.87,599.96,589.78,50.29,0000 0000 0000 0000 000000
2018-06-19 00:46:44,0.02,2.60,0.00,24.81,28.41,31.12,13.89,49.33,1012.20,2022.00,2416.97,2354.04,2732.23,600.17,590.10,50.34,0000 0000 0000 0000 000000
2018-06-19 00:51:45,0.01,2.60,0.00,24.88,28.43,31.13,13.79,49.06,1012.19,2022.00,2416.59,2354.00,2732.02,599.88,589.57,50.39,0000 0000 0000 0000 000000
2018-06-19 00:56:46,0.01,2.60,0.00,24.94,28.45,31.15,13.87,49.00,1012.12,2022.00,2416.11,2354.00,2732.00,600.60,590.14,50.44,0000 0000 0000 0000 000000
2018-06-19 01:01:48,0.00,2.60,0.00,25.01,28.47,31.16,13.80,49.10,1012.09,2022.00,2416.00,2353.95,2731.98,600.12,589.51,50.49,0000 0000 0000 0000 000000
2018-06-19 01:06:50,0.03,2.60,0.00,25.07,28.47,31.19,13.78,48.92,1012.12,2022.00,2415.97,2353.59,2731.56,600.35,589.62,50.54,0000 0000 0000 0000 000000
2018-06-19 01:11:51,0.02,2.61,0.00,25.12,28.49,31.15,13.82,49.06,1012.07,2021.98,2415.71,2353.12,2731.06,600.08,589.22,50.59,0000 0000 0000 0000 000000
2018-06-19 01:16:52,0.01,2.61,0.00,25.20,28.50,31.12,13.81,49.04,1012.06,2021.99,2415.15,2353.02,2731.01,600.29,589.25,50.64,0000 0000 0000 0000 000000
2018-06-19 01:21:54,0.00,2.61,0.00,25.50,28.51,31.01,13.73,49.01,1011.78,2021.99,2415.00,2353.00,2731.00,599.67,587.75,50.69,0000 0000 0000 0000 000000
2018-06-19 01:26:55,0.00,2.61,0.00,25.76,28.54,30.96,13.66,49.04,1011.84,2021.98,2414.97,2352.97,2730.80,599.23,587.13,50.74,0000 0000 0000 0000 000000
2018-06-19 01:31:56,0.07,2.61,0.00,25.98,28.58,30.99,13.71,48.92,1011.96,2021.91,2414.15,2352.19,2730.01,600.28,587.67,50.79,0000 0000 0000 0000 000000
2018-06-19 01:36:57,0.02,2.61,0.00,26.14,28.62,31.07,13.72,48.93,1011.96,2021.42,2413.07,2351.44,2729.08,600.41,587.48,50.84,0000 0000 0000 0000 000000
2018-06-19 01:41:59,0.02,2.61,0.00,26.31,28.68,31.17,13.68,48.98,1012.14,2021.06,2412.13,2350.89,2728.34,599.97,586.93,50.90,0000 0000 0000 0000 000000
2018-06-19 01:47:00,0.05,2.61,0.00,26.44,28.74,31.27,13.70,48.98,1012.22,2021.00,2411.57,2350.13,2727.83,600.22,586.88,50.95,0000 0000 0000 0000 000000
2018-06-19 01:52:01,0.02,2.62,0.00,26.56,28.81,31.39,13.62,48.87,1012.22,2020.83,2410.91,2349.68,2727.03,599.69,586.11,51.00,0000 0000 0000 0000 000000
2018-06-19 01:57:03,-0.01,2.62,0.00,26.68,28.89,31.51,13.66,48.88,1012.22,2020.21,2410.13,2349.04,2726.28,600.08,586.26,51.05,0000 0000 0000 0000 000000
2018-06-19 02:02:04,0.01,2.62,0.00,26.79,28.97,31.62,13.62,48.81,1012.22,2020.01,2409.97,2348.81,2725.93,599.72,585.90,51.10,0000 0000 0000 0000 000000
2018-06-19 02:07:05,0.04,2.62,0.00,26.88,29.06,31.75,13.68,48.87,1012.22,2019.84,2409.31,2348.06,2725.13,600.08,585.92,51.15,0000 0000 0000 0000 000000
2018-06-19 02:12:06,-0.03,2.62,0.00,26.96,29.14,31.85,13.75,48.99,1012.22,2019.11,2408.84,2347.68,2724.65,599.99,585.61,51.20,0000 0000 0000 0000 000000
2018-06-19 02:17:07,0.03,2.62,0.00,27.04,29.23,31.97,13.59,48.78,1012.22,2018.99,2408.08,2346.99,2723.95,600.08,585.55,51.25,0000 0000 0000 0000 000000
2018-06-19 02:22:09,0.07,2.62,0.00,27.07,29.32,32.05,13.68,48.66,1012.22,2018.89,2407.18,2346.12,2722.98,600.02,585.45,51.30,0000 0000 0000 0000 000000
2018-06-19 02:27:10,-0.00,2.62,0.00,27.10,29.41,32.15,13.64,48.58,1012.22,2018.25,2406.43,2345.55,2721.93,600.14,585.46,51.35,0000 0000 0000 0000 000000
2018-06-19 02:32:11,0.08,2.63,0.00,27.13,29.50,32.24,13.61,48.60,1012.22,2018.01,2405.16,2344.34,2720.88,599.74,585.04,51.40,0000 0000 0000 0000 000000
2018-06-19 02:37:12,0.03,2.63,0.00,27.17,29.59,32.31,13.57,48.60,1012.22,2017.97,2404.46,2343.91,2720.05,599.86,585.08,51.45,0000 0000 0000 0000 000000
2018-06-19 02:42:14,-0.03,2.63,0.00,27.21,29.68,32.38,13.59,48.46,1012.22,2017.40,2404.00,2343.15,2719.43,599.57,584.79,51.50,0000 0000 0000 0000 000000
2018-06-19 02:47:16,0.01,2.63,0.00,27.25,29.76,32.44,13.67,48.67,1012.22,2017.01,2403.68,2342.91,2718.89,599.97,585.00,51.55,0000 0000 0000 0000 000000
2018-06-19 02:52:17,0.02,2.63,0.00,27.29,29.84,32.51,13.62,48.63,1012.22,2016.71,2403.02,2342.12,2718.07,600.13,585.18,51.60,0000 0000 0000 0000 000000
2018-06-19 02:57:18,-0.02,2.63,0.00,27.33,29.92,32.59,13.62,48.64,1012.22,2016.06,2402.66,2341.88,2717.58,599.89,584.92,51.65,0000 0000 0000 0000 000000
2018-06-19 03:02:19,0.04,2.63,0.00,27.38,30.00,32.67,13.60,48.67,1012.22,2015.98,2402.02,2341.11,2716.96,599.49,584.29,51.70,0000 0000 0000 0000 000000
2018-06-19 03:07:21,0.01,2.63,0.00,27.42,30.08,32.75,13.66,48.59,1012.22,2015.66,2401.28,2340.73,2716.15,600.12,584.90,51.75,0000 0000 0000 0000 000000
2018-06-19 03:12:23,-0.00,2.63,0.00,27.44,30.15,32.80,13.64,48.59,1012.22,2015.05,2400.81,2340.03,2715.58,600.02,584.62,51.81,0000 0000 0000 0000 000000
2018-06-19 03:17:24,0.04,2.63,0.00,27.48,30.22,32.86,13.58,48.46,1012.22,2014.98,2400.05,2339.55,2715.00,599.64,584.34,51.86,0000 0000 0000 0000 000000
2018-06-19 03:22:25,-0.03,2.63,0.00,27.50,30.29,32.92,13.58,48.51,1012.21,2014.64,2399.82,2339.01,2714.48,599.93,584.27,51.91,0000 0000 0000 0000 000000
2018-06-19 03:27:26,-0.00,2.63,0.00,27.53,30.36,32.99,13.64,48.60,1012.21,2014.05,2399.06,2338.78,2713.96,599.76,584.31,51.96,0000 0000 0000 0000 000000
2018-06-19 03:32:27,0.04,2.63,0.00,27.56,30.42,33.04,13.59,48.70,1012.21,2013.99,2398.83,2338.07,2713.22,599.59,583.90,52.01,0000 0000 0000 0000 000000
2018-06-19 03:37:29,-0.02,2.63,0.00,27.59,30.48,33.10,13.58,48.71,1012.22,2013.64,2398.06,2337.87,2712.88,599.93,584.29,52.06,0000 0000 0000 0000 000000
2018-06-19 03:42:30,0.00,2.63,0.00,27.64,30.54,33.15,13.64,48.65,1012.22,2013.08,2397.82,2337.20,2712.13,599.85,584.02,52.11,0000 0000 0000 0000 000000
2018-06-19 03:47:31,0.02,2.63,0.00,27.64,30.60,33.19,13.58,48.56,1012.22,2013.00,2397.08,2336.99,2711.95,599.84,584.15,52.16,0000 0000 0000 0000 000000
2018-06-19 03:52:32,0.03,2.64,0.00,27.67,30.66,33.25,13.58,48.68,1012.21,2012.91,2396.96,2336.61,2711.18,599.59,583.84,52.21,0000 0000 0000 0000 000000
2018-06-19 03:57:34,-0.03,2.64,0.00,27.70,30.71,33.31,13.64,48.60,1012.16,2012.36,2396.17,2336.03,2710.90,600.02,584.23,52.26,0000 0000 0000 0000 000000
2018-06-19 04:02:35,0.04,2.64,0.00,27.70,30.76,33.35,13.67,48.63,1011.94,2012.07,2395.71,2335.70,2710.14,600.30,584.23,52.31,0000 0000 0000 0000 000000
2018-06-19 04:07:36,0.02,2.64,0.00,27.74,30.81,33.41,13.54,48.68,1011.84,2012.00,2395.03,2335.04,2709.87,599.88,583.75,52.36,0000 0000 0000 0000 000000
2018-06-19 04:12:37,0.01,2.64,0.00,27.79,30.86,33.44,13.56,48.70,1011.83,2011.96,2394.95,2334.95,2709.11,599.66,583.51,52.41,0000 0000 0000 0000 000000
2018-06-19 04:17:39,0.02,2.64,0.00,27.81,30.91,33.49,13.64,48.78,1011.86,2011.71,2394.26,2334.28,2708.97,600.24,583.89,52.46,0000 0000 0000 0000 000000
2018-06-19 04:22:40,-0.02,2.64,0.00,27.86,30.95,33.55,13.57,48.65,1011.80,2011.19,2393.99,2334.01,2708.28,600.15,583.79,52.51,0000 0000 0000 0000 000000
2018-06-19 04:27:42,0.02,2.64,0.00,27.89,31.00,33.59,13.59,48.62,1011.77,2011.01,2393.53,2333.88,2707.99,599.71,583.28,52.56,0000 0000 0000 0000 000000
2018-06-19 04:32:43,0.05,2.64,0.00,27.90,31.04,33.62,13.65,48.81,1011.80,2011.00,2393.01,2333.13,2707.61,600.14,583.72,52.61,0000 0000 0000 0000 000000
2018-06-19 04:37:45,0.01,2.64,0.00,27.93,31.09,33.67,13.62,48.77,1011.94,2010.96,2392.86,2333.00,2707.02,600.01,583.73,52.66,0000 0000 0000 0000 000000
2018-06-19 04:42:46,-0.00,2.64,0.00,27.97,31.13,33.69,13.65,48.71,1012.01,2010.71,2392.15,2332.88,2706.91,600.21,583.84,52.72,0000 0000 0000 0000 000000
2018-06-19 04:47:47,-0.00,2.64,0.00,27.97,31.17,33.74,13.66,48.81,1012.02,2010.18,2391.96,2332.16,2706.12,600.17,583.72,52.77,0000 0000 0000 0000 000000
2018-06-19 04:52:48,0.02,2.64,0.00,28.00,31.21,33.79,13.61,48.68,1011.96,2010.08,2391.16,2332.00,2705.98,599.80,583.23,52.82,0000 0000 0000 0000 000000
2018-06-19 04:57:49,0.03,2.64,0.00,28.02,31.25,33.80,13.59,48.62,1011.99,2010.00,2390.98,2331.62,2705.24,599.82,583.22,52.87,0000 0000 0000 0000 000000
2018-06-19 05:02:50,0.03,2.65,0.00,28.04,31.28,33.85,13.60,48.73,1012.11,2009.99,2390.30,2331.04,2704.99,599.61,583.14,52.92,0000 0000 0000 0000 000000
2018-06-19 05:07:51,0.02,2.65,0.00,28.06,31.32,33.88,13.64,48.64,1012.07,2009.98,2389.91,2330.90,2704.38,600.49,583.87,52.97,0000 0000 0000 0000 000000
2018-06-19 05:12:53,0.03,2.65,0.00,28.09,31.36,33.92,13.65,48.68,1012.12,2009.82,2389.19,2330.19,2703.99,599.93,583.30,53.02,0000 0000 0000 0000 000000
2018-06-19 05:17:54,-0.02,2.65,0.00,28.10,31.38,33.94,13.70,48.68,1012.04,2009.45,2388.88,2330.00,2703.55,600.29,583.48,53.07,0000 0000 0000 0000 000000
2018-06-19 05:22:55,0.02,2.65,0.00,28.12,31.42,33.98,13.63,48.57,1012.04,2009.15,2388.10,2329.57,2703.01,599.93,583.17,53.12,0000 0000 0000 0000 000000
2018-06-19 05:27:56,0.04,2.65,0.00,28.15,31.46,34.00,13.68,48.63,1012.10,2009.04,2387.58,2329.02,2702.39,600.34,583.58,53.17,0000 0000 0000 0000 000000
2018-06-19 05:32:57,0.03,2.65,0.00,28.17,31.49,34.05,13.67,48.62,1012.19,2009.00,2386.97,2328.67,2701.96,600.13,583.34,53.22,0000 0000 0000 0000 000000
2018-06-19 05:37:58,0.05,2.66,0.00,28.18,31.52,34.08,13.65,48.55,1012.20,2009.00,2386.23,2328.05,2701.21,600.14,583.33,53.27,0000 0000 0000 0000 000000
2018-06-19 05:43:00,0.00,2.66,0.00,28.21,31.56,34.10,13.65,48.67,1012.22,2008.98,2385.96,2327.96,2700.97,600.22,583.39,53.32,0000 0000 0000 0000 000000
2018-06-19 05:48:01,0.04,2.66,0.00,28.24,31.59,34.14,13.61,48.47,1012.22,2008.86,2385.35,2327.40,2700.29,600.04,583.19,53.37,0000 0000 0000 0000 000000
2018-06-19 05:53:02,-0.05,2.66,0.00,28.27,31.62,34.16,13.59,48.44,1012.22,2008.28,2385.01,2327.02,2700.01,599.82,582.85,53.42,0000 0000 0000 0000 000000
2018-06-19 05:58:03,0.02,2.66,0.00,28.30,31.66,34.18,13.69,48.75,1012.21,2008.07,2384.45,2326.91,2699.57,600.39,583.36,53.47,0000 0000 0000 0000 000000
2018-06-19 06:03:05,0.04,2.66,0.00,28.33,31.69,34.22,13.60,48.54,1012.22,2008.00,2384.00,2326.15,2699.02,599.82,582.66,53.52,0000 0000 0000 0000 000000
2018-06-19 06:08:06,0.02,2.66,0.00,28.37,31.72,34.25,13.62,48.54,1012.21,2008.00,2383.53,2326.00,2698.72,600.05,582.93,53.57,0000 0000 0000 0000 000000
2018-06-19 06:13:07,0.03,2.66,0.00,28.39,31.76,34.30,13.58,48.50,1012.20,2007.97,2383.01,2325.71,2698.03,600.02,582.86,53.62,0000 0000 0000 0000 000000
2018-06-19 06:18:09,0.04,2.66,0.00,28.44,31.79,34.33,13.63,48.31,1012.20,2007.94,2382.48,2325.05,2697.84,600.30,582.99,53.67,0000 0000 0000 0000 000000
2018-06-19 06:23:10,0.01,2.67,0.00,28.47,31.82,34.34,13.57,48.33,1012.22,2007.85,2382.00,2324.98,2697.15,600.03,582.75,53.72,0000 0000 0000 0000 000000
2018-06-19 06:28:11,-0.00,2.67,0.00,28.49,31.85,34.36,13.65,48.37,1012.21,2007.27,2381.30,2324.38,2696.83,600.11,582.74,53.78,0000 0000 0000 0000 000000
2018-06-19 06:33:13,0.01,2.67,0.00,28.51,31.88,34.40,13.56,48.44,1012.21,2007.08,2380.89,2324.00,2696.07,599.79,582.51,53.83,0000 0000 0000 0000 000000
2018-06-19 06:38:14,0.05,2.67,0.00,28.55,31.91,34.44,13.61,48.42,1012.20,2007.00,2380.11,2323.62,2695.82,599.77,582.29,53.88,0000 0000 0000 0000 000000
2018-06-19 06:43:15,0.04,2.67,0.00,28.60,31.95,34.47,13.62,48.58,1012.19,2007.00,2379.60,2323.02,2695.08,599.60,582.11,53.93,0000 0000 0000 0000 000000
2018-06-19 06:48:16,0.02,2.67,0.00,28.63,31.98,34.49,13.57,48.31,1012.20,2007.00,2378.98,2322.93,2694.80,600.09,582.45,53.98,0000 0000 0000 0000 000000
2018-06-19 06:53:18,0.07,2.68,0.00,28.66,32.01,34.52,13.62,48.31,1012.22,2006.99,2378.25,2322.16,2694.07,599.88,582.21,54.03,0000 0000 0000 0000 000000
2018-06-19 06:58:19,0.05,2.68,0.00,28.69,32.04,34.56,13.64,48.40,1012.20,2006.96,2377.33,2321.83,2693.36,600.28,582.48,54.08,0000 0000 0000 0000 000000
2018-06-19 07:03:20,-0.02,2.68,0.00,28.61,32.07,34.61,13.57,48.40,1012.18,2006.66,2376.95,2321.12,2692.99,599.94,582.37,54.13,0000 0000 0000 0000 000000
2018-06-19 07:08:22,0.03,2.68,0.00,28.49,32.10,34.76,13.63,48.33,1012.21,2006.25,2376.13,2320.97,2692.32,600.10,582.80,54.18,0000 0000 0000 0000 000000
2018-06-19 07:13:23,0.04,2.68,0.00,28.31,32.10,35.09,13.72,48.67,1012.22,2006.21,2375.34,2320.37,2691.99,600.53,583.54,54.23,0000 0000 0000 0000 000000
2018-06-19 07:18:24,0.02,2.68,0.00,28.13,32.10,35.18,13.78,48.65,1012.22,2006.12,2374.87,2320.01,2691.38,600.19,583.50,54.28,0000 0000 0000 0000 000000
2018-06-19 07:23:25,0.02,2.68,0.00,28.00,32.10,35.14,13.73,48.67,1012.22,2006.02,2374.36,2319.99,2691.01,600.00,583.59,54.33,0000 0000 0000 0000 000000
2018-06-19 07:28:27,0.02,2.68,0.00,27.89,32.07,35.09,13.74,48.63,1012.22,2006.11,2373.99,2319.93,2691.00,600.16,583.98,54.38,0000 0000 0000 0000 000000
2018-06-19 07:33:28,0.10,2.69,0.00,27.79,32.04,35.00,13.68,48.56,1012.22,2006.47,2373.35,2319.41,2690.76,600.06,584.06,54.43,0000 0000 0000 0000 000000
2018-06-19 07:38:29,0.06,2.69,0.00,27.72,32.01,34.87,13.80,48.76,1012.22,2006.88,2372.95,2319.02,2690.09,600.10,584.25,54.48,0000 0000 0000 0000 000000
2018-06-19 07:43:30,0.02,2.69,0.00,27.66,31.96,34.76,13.66,48.62,1012.22,2006.93,2372.23,2319.00,2689.99,599.92,584.19,54.53,0000 0000 0000 0000 000000
2018-06-19 07:48:32,0.06,2.70,0.00,27.62,31.92,34.63,13.75,48.62,1012.22,2006.98,2371.62,2318.74,2689.50,599.85,584.21,54.58,0000 0000 0000 0000 000000
2018-06-19 07:53:33,0.03,2.70,0.00,27.60,31.87,34.52,13.69,48.56,1012.22,2007.00,2370.97,2318.11,2689.01,599.91,584.30,54.63,0000 0000 0000 0000 000000
2018-06-19 07:58:34,0.03,2.70,0.00,27.59,31.82,34.43,13.73,48.52,1012.22,2007.03,2370.16,2317.99,2688.84,600.28,584.58,54.69,0000 0000 0000 0000 000000
2018-06-19 08:03:36,0.11,2.70,0.00,27.58,31.77,34.34,13.68,48.49,1012.22,2007.56,2369.55,2317.82,2688.14,600.07,584.45,54.74,0000 0000 0000 0000 000000
2018-06-19 08:08:37,0.05,2.71,0.00,27.60,31.73,34.25,13.72,48.72,1012.22,2007.96,2368.97,2317.16,2687.99,599.76,584.16,54.79,0000 0000 0000 0000 000000
2018-06-19 08:13:38,0.07,2.71,0.00,27.61,31.68,34.18,13.66,48.48,1012.22,2007.99,2367.92,2316.70,2687.44,599.96,584.29,54.84,0000 0000 0000 0000 000000
2018-06-19 08:18:39,0.22,2.72,0.00,27.62,31.64,34.14,13.67,48.66,1012.22,2007.99,2365.61,2314.59,2684.65,600.16,584.46,54.89,0000 0000 0000 0000 000000
2018-06-19 08:23:41,0.09,2.73,0.00,27.64,31.61,34.13,13.70,48.63,1012.22,2008.04,2364.16,2313.54,2683.36,600.18,584.52,54.94,0000 0000 0000 0000 000000
2018-06-19 08:28:42,0.18,2.73,0.00,27.67,31.57,34.11,13.67,48.74,1012.22,2008.19,2362.56,2312.38,2681.89,599.73,584.01,54.99,0000 0000 0000 0000 000000
2018-06-19 08:33:44,0.21,2.75,0.00,27.70,31.54,34.09,13.62,48.51,1012.22,2008.71,2360.49,2310.33,2679.54,599.64,583.98,55.04,0000 0000 0000 0000 000000
2018-06-19 08:38:45,0.06,2.75,0.00,27.72,31.51,34.06,13.66,48.56,1012.22,2008.96,2359.44,2309.83,2678.71,600.04,584.13,55.09,0000 0000 0000 0000 000000
2018-06-19 08:43:46,0.10,2.76,0.00,27.76,31.48,34.03,13.66,48.64,1012.23,2008.98,2358.04,2308.84,2677.14,599.85,583.93,55.14,0000 0000 0000 0000 000000
2018-06-19 08:48:47,0.05,2.76,0.00,27.80,31.46,34.00,13.65,48.59,1012.23,2008.99,2357.29,2308.10,2676.90,599.96,584.02,55.19,0000 0000 0000 0000 000000
2018-06-19 08:53:48,0.03,2.76,0.00,27.83,31.45,33.98,13.71,48.62,1012.23,2008.99,2356.68,2307.99,2676.14,600.29,584.20,55.24,0000 0000 0000 0000 000000
2018-06-19 08:58:50,0.04,2.76,0.00,27.88,31.42,33.93,13.62,48.53,1012.22,2008.99,2355.95,2307.47,2675.91,600.13,584.01,55.29,0000 0000 0000 0000 000000
2018-06-19 09:03:51,0.05,2.77,0.00,27.92,31.42,33.86,13.65,48.39,1012.22,2009.01,2355.14,2307.01,2675.13,599.91,583.65,55.34,0000 0000 0000 0000 000000
2018-06-19 09:08:52,0.08,2.77,0.00,27.96,31.41,33.79,13.64,48.52,1012.23,2009.00,2354.31,2306.54,2674.54,600.02,583.70,55.39,0000 0000 0000 0000 000000
2018-06-19 09:13:53,0.11,2.77,0.00,28.01,31.40,33.76,13.65,48.52,1012.22,2009.02,2352.77,2305.46,2673.28,600.11,583.74,55.44,0000 0000 0000 0000 000000
2018-06-19 09:18:54,0.09,2.78,0.00,28.05,31.40,33.73,13.66,48.48,1012.23,2009.07,2351.47,2304.51,2672.07,599.99,583.65,55.49,0000 0000 0000 0000 000000
2018-06-19 09:23:56,0.06,2.78,0.00,28.10,31.40,33.73,13.68,48.51,1012.23,2009.13,2350.46,2303.86,2671.18,600.01,583.45,55.54,0000 0000 0000 0000 000000
2018-06-19 09:28:57,0.06,2.79,0.00,28.15,31.41,33.73,13.64,48.38,1012.23,2009.09,2349.45,2303.07,2670.32,600.49,583.77,55.59,0000 0000 0000 0000 000000
2018-06-19 09:33:58,0.06,2.79,0.00,28.20,31.42,33.74,13.55,48.42,1012.23,2009.11,2348.46,2302.67,2669.58,599.78,583.01,55.64,0000 0000 0000 0000 000000
2018-06-19 09:39:00,0.05,2.79,0.00,28.25,31.42,33.75,13.58,48.55,1012.22,2009.08,2347.38,2302.01,2668.80,599.75,582.88,55.70,0000 0000 0000 0000 000000
2018-06-19 09:44:01,0.06,2.80,0.00,28.31,31.44,33.76,13.60,48.38,1012.23,2009.01,2346.42,2301.39,2668.02,600.17,583.18,55.75,0000 0000 0000 0000 000000
2018-06-19 09:49:02,0.04,2.80,0.00,28.36,31.45,33.78,13.60,48.33,1012.23,2009.01,2345.55,2300.97,2667.30,600.13,582.94,55.80,0000 0000 0000 0000 000000
2018-06-19 09:54:03,0.07,2.80,0.00,28.42,31.47,33.79,13.63,48.56,1012.22,2009.00,2344.59,2300.24,2666.65,600.04,582.88,55.85,0000 0000 0000 0000 000000
2018-06-19 09:59:05,0.03,2.81,0.00,28.48,31.49,33.81,13.56,48.28,1012.24,2009.00,2343.72,2299.88,2665.95,600.08,582.61,55.90,0000 0000 0000 0000 000000
2018-06-19 10:04:07,0.07,2.81,0.00,28.53,31.51,33.83,13.58,48.35,1012.24,2009.00,2342.79,2299.10,2665.10,600.21,582.80,55.95,0000 0000 0000 0000 000000
2018-06-19 10:09:08,0.08,2.81,0.00,28.59,31.54,33.85,13.48,48.20,1012.23,2009.00,2341.78,2298.51,2664.28,600.04,582.42,56.00,0000 0000 0000 0000 000000
2018-06-19 10:14:10,0.05,2.82,0.00,28.65,31.57,33.89,13.53,48.27,1012.22,2008.97,2340.77,2297.90,2663.43,599.90,582.27,56.05,0000 0000 0000 0000 000000
2018-06-19 10:19:11,0.05,2.82,0.00,28.71,31.60,33.93,13.57,48.28,1012.25,2008.85,2339.83,2297.07,2662.66,599.85,582.06,56.10,0000 0000 0000 0000 000000
2018-06-19 10:24:13,0.03,2.82,0.00,28.77,31.63,33.97,13.57,48.32,1012.33,2008.56,2338.93,2296.56,2661.94,599.59,581.86,56.15,0000 0000 0000 0000 000000
2018-06-19 10:29:14,0.01,2.82,0.00,28.84,31.67,34.03,13.60,48.10,1012.31,2008.20,2337.96,2296.00,2661.06,600.14,582.24,56.20,0000 0000 0000 0000 000000
2018-06-19 10:34:15,0.08,2.83,0.00,28.90,31.71,34.09,13.53,47.97,1012.42,2008.00,2336.89,2295.18,2660.10,599.88,581.85,56.25,0000 0000 0000 0000 000000
2018-06-19 10:39:16,0.08,2.83,0.00,28.97,31.76,34.17,13.56,48.27,1012.46,2008.00,2335.77,2294.53,2659.16,599.95,581.75,56.30,0000 0000 0000 0000 000000
2018-06-19 10:44:17,0.06,2.83,0.00,29.05,31.80,34.25,13.52,48.12,1012.38,2008.00,2334.77,2293.89,2658.35,600.29,582.03,56.35,0000 0000 0000 0000 000000
2018-06-19 10:49:19,0.22,2.84,0.00,29.12,31.85,34.34,13.57,48.02,1012.36,2007.96,2332.92,2292.10,2656.34,600.60,582.09,56.40,0000 0000 0000 0000 000000
2018-06-19 10:54:20,0.26,2.86,0.00,29.20,31.90,34.41,13.58,48.07,1012.36,2007.68,2329.04,2288.49,2651.78,600.43,581.79,56.45,0000 0000 0000 0000 000000
2018-06-19 10:59:21,0.03,2.86,0.00,29.27,31.95,34.50,13.48,48.08,1012.61,2007.16,2327.78,2287.63,2650.62,599.54,580.93,56.50,0000 0000 0000 0000 000000
2018-06-19 11:04:22,0.09,2.86,0.00,29.34,32.01,34.59,13.59,48.22,1012.66,2007.00,2326.56,2286.72,2649.55,600.04,581.25,56.55,0000 0000 0000 0000 000000
2018-06-19 11:09:24,0.07,2.87,0.00,29.41,32.06,34.67,13.50,48.04,1012.71,2006.98,2325.37,2285.88,2648.48,600.24,581.29,56.60,0000 0000 0000 0000 000000
2018-06-19 11:14:25,0.06,2.87,0.00,29.48,32.12,34.73,13.58,48.13,1012.71,2006.86,2324.17,2285.01,2647.50,600.04,580.99,56.66,0000 0000 0000 0000 000000
2018-06-19 11:19:26,0.03,2.87,0.00,29.53,32.17,34.80,13.56,48.07,1012.71,2006.26,2322.87,2284.10,2646.33,600.19,581.09,56.71,0000 0000 0000 0000 000000
2018-06-19 11:24:27,0.08,2.88,0.00,29.59,32.22,34.85,13.55,48.08,1012.71,2006.03,2321.55,2283.21,2645.19,599.90,580.68,56.76,0000 0000 0000 0000 000000
2018-06-19 11:29:28,0.08,2.88,0.00,29.63,32.28,34.88,13.49,47.94,1012.71,2005.99,2320.59,2282.33,2644.14,599.78,580.60,56.81,0000 0000 0000 0000 000000
2018-06-19 11:34:29,0.00,2.88,0.00,29.66,32.33,34.92,13.54,47.81,1012.71,2005.66,2319.74,2281.79,2643.28,600.15,580.89,56.86,0000 0000 0000 0000 000000
2018-06-19 11:39:30,0.01,2.88,0.00,29.70,32.38,34.94,13.50,47.88,1012.74,2005.05,2319.02,2281.05,2642.66,599.67,580.31,56.91,0000 0000 0000 0000 000000
2018-06-19 11:44:32,0.03,2.89,0.00,29.72,32.43,34.96,13.52,48.23,1012.73,2005.00,2318.40,2280.86,2642.01,599.92,580.62,56.96,0000 0000 0000 0000 000000
2018-06-19 11:49:33,0.04,2.89,0.00,29.72,32.47,35.00,13.57,48.17,1012.81,2004.94,2317.97,2280.14,2641.40,599.97,580.72,57.01,0000 0000 0000 0000 000000
2018-06-19 11:54:34,-0.04,2.89,0.00,29.73,32.51,35.03,13.58,48.06,1012.78,2004.41,2317.15,2279.93,2640.87,600.33,580.76,57.06,0000 0000 0000 0000 000000
2018-06-19 11:59:36,0.06,2.89,0.00,29.72,32.55,35.06,13.59,48.04,1012.93,2004.02,2316.46,2279.17,2640.07,600.52,581.26,57.11,0000 0000 0000 0000 000000
2018-06-19 12:04:37,0.03,2.89,0.00,29.72,32.59,35.08,13.51,48.10,1012.91,2004.00,2315.80,2278.86,2639.52,599.97,580.63,57.16,0000 0000 0000 0000 000000
2018-06-19 12:09:38,0.06,2.89,0.00,29.70,32.62,35.10,13.58,48.13,1012.73,2003.99,2315.00,2278.08,2638.89,600.29,580.83,57.21,0000 0000 0000 0000 000000
2018-06-19 12:14:39,0.04,2.90,0.00,29.68,32.65,35.12,13.54,48.18,1012.73,2003.93,2314.19,2277.84,2638.11,599.64,580.29,57.26,0000 0000 0000 0000 000000
2018-06-19 12:19:40,0.05,2.90,0.00,29.67,32.67,35.14,13.48,48.09,1012.72,2003.76,2313.28,2277.06,2637.47,599.35,580.01,57.31,0000 0000 0000 0000 000000
2018-06-19 12:24:42,-0.01,2.90,0.00,29.67,32.70,35.15,13.53,48.08,1012.72,2003.19,2312.62,2276.54,2636.88,600.18,580.94,57.36,0000 0000 0000 0000 000000
2018-06-19 12:29:43,0.03,2.90,0.00,29.67,32.72,35.15,13.53,48.09,1012.72,2003.05,2311.93,2276.02,2636.12,600.01,580.82,57.41,0000 0000 0000 0000 000000
2018-06-19 12:34:44,0.06,2.90,0.00,29.67,32.75,35.17,13.53,47.96,1012.72,2003.02,2311.10,2275.65,2635.63,600.04,580.72,57.46,0000 0000 0000 0000 000000
2018-06-19 12:39:45,0.04,2.91,0.00,29.67,32.76,35.18,13.56,48.22,1012.72,2003.00,2310.29,2275.01,2634.92,600.49,581.16,57.51,0000 0000 0000 0000 000000
2018-06-19 12:44:46,0.07,2.91,0.00,29.67,32.78,35.20,13.57,48.10,1012.72,2002.99,2309.57,2274.43,2634.11,599.96,580.56,57.56,0000 0000 0000 0000 000000
2018-06-19 12:49:48,0.01,2.91,0.00,29.67,32.80,35.20,13.58,48.20,1012.72,2002.95,2309.03,2274.04,2633.86,600.07,580.66,57.61,0000 0000 0000 0000 000000
2018-06-19 12:54:49,0.04,2.91,0.00,29.67,32.82,35.22,13.53,48.19,1012.72,2002.87,2308.48,2273.86,2633.09,600.09,580.73,57.67,0000 0000 0000 0000 000000